Location: Newark
(25.4800°N, 85.7200°E)
Time: 19:23:42
(UTC+00:00)

A-11 Canister half - All Passes

Search period start: 18 August 2019 00:00
Search period end: 28 August 2019 00:00
Orbit: 1514 x 1686 km, 47.2° (Epoch: 17 August)

Date Brightness Start Highest point End Pass type
(mag) Time Alt. Az. Time Alt. Az. Time Alt. Az.
18 Aug - 09:31:57 10° SE 09:35:28 13° ESE 09:39:01 10° E daylight
18 Aug - 11:30:05 10° SW 11:39:16 69° SE 11:48:46 10° NE daylight
18 Aug - 13:36:08 10° W 13:44:42 38° NNW 13:53:34 10° NE visible
18 Aug - 15:45:53 10° NW 15:52:32 20° N 15:59:22 10° NE visible
18 Aug - 17:52:57 10° NW 18:01:04 27° NNE 18:09:20 10° ENE visible
18 Aug - 19:57:29 10° NW 20:07:35 73° NE 20:17:45 10° SE visible
18 Aug - 22:03:41 10° WNW 22:12:07 31° SW 22:20:33 10° S visible
19 Aug - 09:10:31 10° SE 09:12:37 11° ESE 09:14:44 10° ESE daylight
19 Aug - 11:07:16 10° SSW 11:16:24 64° SE 11:25:47 10° NE daylight
19 Aug - 13:13:02 10° W 13:21:40 40° NNW 13:30:38 10° NE visible
19 Aug - 15:22:43 10° NW 15:29:24 20° N 15:36:14 10° NE visible
19 Aug - 17:30:01 10° NNW 17:37:58 26° NNE 17:46:04 10° ENE visible
19 Aug - 19:34:34 10° NW 19:44:36 69° NE 19:54:44 10° ESE visible
19 Aug - 21:40:32 10° WNW 21:49:13 33° SW 21:57:55 10° S visible
20 Aug - 10:44:29 10° SSW 10:53:30 60° SE 11:02:48 10° NE daylight
20 Aug - 12:49:57 10° W 12:58:40 42° NNW 13:07:43 10° NE daylight
20 Aug - 14:59:33 10° NW 15:06:16 20° N 15:13:08 10° NE visible
20 Aug - 17:07:04 10° NNW 17:14:52 25° NNE 17:22:48 10° ENE visible
20 Aug - 19:11:39 10° NW 19:21:37 65° NE 19:31:42 10° ESE visible
20 Aug - 21:17:25 10° WNW 21:26:18 36° SW 21:35:15 10° S visible
21 Aug - 10:21:42 10° SSW 10:30:38 55° SE 10:39:47 10° ENE daylight
21 Aug - 12:26:52 10° WSW 12:35:40 44° NNW 12:44:47 10° NE daylight
21 Aug - 14:36:22 10° NW 14:43:07 21° N 14:50:03 10° NE visible
21 Aug - 16:44:08 10° NNW 16:51:44 24° NNE 16:59:31 10° ENE visible
21 Aug - 18:48:45 10° NW 18:58:37 61° NE 19:08:38 10° ESE visible
21 Aug - 20:54:19 10° WNW 21:03:24 39° SW 21:12:33 10° SSE visible
22 Aug - 09:58:57 10° SSW 10:07:46 51° SE 10:16:46 10° ENE daylight
22 Aug - 12:03:49 10° WSW 12:12:41 47° NW 12:21:52 10° NE daylight
22 Aug - 14:13:11 10° WNW 14:20:00 21° N 14:27:00 10° NE visible
22 Aug - 16:21:11 10° NW 16:28:37 24° NNE 16:36:14 10° ENE visible
22 Aug - 18:25:51 10° NW 18:35:38 57° NE 18:45:35 10° ESE visible
22 Aug - 20:31:14 10° WNW 20:40:29 43° SW 20:49:50 10° SSE visible
23 Aug - 09:36:13 10° SSW 09:44:54 47° SE 09:53:44 10° ENE daylight
23 Aug - 11:40:47 10° WSW 11:49:42 50° NW 11:58:56 10° NE daylight
23 Aug - 13:50:01 10° WNW 13:56:52 22° NNW 14:03:56 10° NE visible
23 Aug - 15:58:13 10° NW 16:05:30 23° NNE 16:12:56 10° ENE visible
23 Aug - 18:02:56 10° NW 18:12:37 54° NE 18:22:29 10° ESE visible
23 Aug - 20:08:11 10° WNW 20:17:34 46° SW 20:27:05 10° SSE visible
24 Aug - 09:13:31 10° SSW 09:22:01 43° SE 09:30:41 10° ENE daylight
24 Aug - 11:17:45 10° WSW 11:26:44 53° NW 11:36:01 10° NE daylight
24 Aug - 13:26:49 10° WNW 13:33:45 22° NNW 13:40:54 10° NE visible
24 Aug - 15:35:15 10° NW 15:42:22 22° NNE 15:49:39 10° ENE visible
24 Aug - 17:40:03 10° NW 17:49:37 51° NE 17:59:23 10° ESE visible
24 Aug - 19:45:09 10° WNW 19:54:39 50° SW 20:04:18 10° SSE visible
25 Aug - 08:50:49 10° SSW 08:59:10 40° SE 09:07:38 10° ENE daylight
25 Aug - 10:54:44 10° WSW 11:03:46 56° NW 11:13:06 10° NE daylight
25 Aug - 13:03:37 10° WNW 13:10:40 23° NNW 13:17:53 10° NE visible
25 Aug - 15:12:17 10° NW 15:19:15 21° NNE 15:26:22 10° ENE visible
25 Aug - 17:17:09 10° NW 17:26:36 48° NE 17:36:16 10° ESE visible
25 Aug - 19:22:07 10° WNW 19:31:44 54° SW 19:41:30 10° SSE visible
26 Aug - 08:28:09 10° S 08:36:19 36° SE 08:44:33 10° ENE daylight
26 Aug - 10:31:44 10° WSW 10:40:49 60° NW 10:50:11 10° NE daylight
26 Aug - 12:40:25 10° WNW 12:47:34 23° NNW 12:54:53 10° NNE daylight
26 Aug - 14:49:17 10° NW 14:56:07 21° N 15:03:06 10° ENE visible
26 Aug - 16:54:16 10° NW 17:03:35 45° NE 17:13:07 10° ESE visible
26 Aug - 18:59:07 10° NW 19:08:49 58° SW 19:18:41 10° SSE visible
27 Aug - 08:05:31 10° S 08:13:27 33° SE 08:21:28 10° ENE daylight
27 Aug - 10:08:45 10° WSW 10:17:52 64° NW 10:27:16 10° NE daylight
27 Aug - 12:17:14 10° WNW 12:24:28 24° NNW 12:31:53 10° NNE daylight
27 Aug - 14:26:17 10° NW 14:33:00 20° N 14:39:49 10° NE visible
27 Aug - 16:31:23 10° NW 16:40:34 43° NNE 16:49:58 10° ESE visible
27 Aug - 18:36:08 10° NW 18:45:53 62° SW 18:55:51 10° SSE visible
27 Aug - 20:47:10 10° WSW 20:49:55 11° WSW 20:52:42 10° SW night (unlit)
